Location: Curupao
(10.4996°N, 66.6442°W)
Time: 20:23:53
(UTC+00:00)

SL-12 R/B(2) - Pass Details

Date: 23 May 2024
Orbit: 1194 x 2154 km, 63.4° (Epoch: 22 June)

Event Time Altitude Azimuth Distance (km) Brightness Sun altitude
Exits shadow 08:37:24 30° 227° (SW) 1,998 4.6 -20.2°
Maximum altitude 08:41:08 61° 295° (WNW) 1,390 4.1 -19.4°
Drops below altitude 10° 08:49:04 10° 14° (NNE) 3,426 6.9 -17.7°
Sets 08:52:11 0° 18° (NNE) 4,516 7.6 -17.0°
